When you browse on this site, cookies collect data to enhance your experience and personalize the content and advertising you see.
Visit our Privacy Policy to learn more. By continuing to use the site, you agree to this use of cookies and data.
  • In Deutschland
  • Länderverzeichnis
  • Für 7 Tage
  • Wassertemperatur
  • Wetterkarte
  • Widgets
  • user-avatar
    Anmelden

    Stündliche Wetter Skatinskoe

    Heute, 19 Oktober, Samstag

    Zeit Temperatur Niederschläge Wind Luftdruck Luftfeuchtigkeit
    00:00 -5°C° 0 mm 3 m/S 758 mmHg 82%
    01:00 -6°C° 0 mm 3 m/S 759 mmHg 81%
    02:00 -6°C° 0 mm 3 m/S 759 mmHg 82%
    03:00 -7°C° 0 mm 4 m/S 759 mmHg 82%
    04:00 -7°C° 0 mm 3 m/S 760 mmHg 86%
    05:00 -7°C° 0 mm 3 m/S 760 mmHg 85%
    06:00 -7°C° 0 mm 3 m/S 761 mmHg 85%
    07:00 -7°C° 0 mm 3 m/S 761 mmHg 85%
    08:00 -6°C° 0 mm 3 m/S 761 mmHg 80%
    09:00 -5°C° 0 mm 4 m/S 762 mmHg 75%
    10:00 -5°C° 0 mm 4 m/S 762 mmHg 70%
    11:00 -4°C° 0 mm 4 m/S 762 mmHg 69%
    12:00 -4°C° 0 mm 3 m/S 763 mmHg 67%
    13:00 -2°C° 0 mm 3 m/S 763 mmHg 66%
    14:00 -4°C° 0 mm 3 m/S 763 mmHg 69%
    15:00 -3°C° 0 mm 2 m/S 763 mmHg 72%
    16:00 -3°C° 0 mm 2 m/S 764 mmHg 75%
    17:00 -4°C° 0 mm 2 m/S 764 mmHg 76%
    18:00 -5°C° 0 mm 2 m/S 765 mmHg 78%
    19:00 -5°C° 0 mm 2 m/S 765 mmHg 79%
    20:00 -6°C° 0 mm 2 m/S 765 mmHg 80%
    21:00 -4°C° 0 mm 1 m/S 766 mmHg 80%
    22:00 -4°C° 0 mm 1 m/S 766 mmHg 80%
    23:00 -4°C° 0 mm 1 m/S 766 mmHg 81%

    Morgen, 20 Oktober, Sonntag

    Zeit Temperatur Niederschläge Wind Luftdruck Luftfeuchtigkeit
    00:00 -4°C° 0 mm 1 m/S 767 mmHg 81%
    01:00 -4°C° 0 mm 1 m/S 767 mmHg 81%
    02:00 -6°C° 0 mm 1 m/S 767 mmHg 81%
    03:00 -6°C° 0 mm 1 m/S 767 mmHg 82%
    04:00 -6°C° 0 mm 1 m/S 767 mmHg 82%
    05:00 -6°C° 0 mm 1 m/S 767 mmHg 83%
    06:00 -6°C° 0 mm 1 m/S 767 mmHg 83%
    07:00 -7°C° 0 mm 2 m/S 767 mmHg 84%
    08:00 -6°C° 0 mm 2 m/S 767 mmHg 79%
    09:00 -6°C° 0 mm 3 m/S 767 mmHg 75%
    10:00 -5°C° 0 mm 3 m/S 767 mmHg 70%
    11:00 -4°C° 0 mm 3 m/S 767 mmHg 69%
    12:00 -3°C° 0 mm 4 m/S 767 mmHg 68%
    13:00 -3°C° 0 mm 4 m/S 766 mmHg 67%
    14:00 -3°C° 0 mm 4 m/S 766 mmHg 70%
    15:00 -4°C° 0 mm 4 m/S 766 mmHg 73%
    16:00 -4°C° 0 mm 4 m/S 765 mmHg 76%
    17:00 -5°C° 0 mm 4 m/S 765 mmHg 77%
    18:00 -6°C° 0 mm 5 m/S 765 mmHg 78%
    19:00 -6°C° 0 mm 5 m/S 765 mmHg 80%
    20:00 -7°C° 0 mm 5 m/S 764 mmHg 80%
    21:00 -7°C° 0 mm 5 m/S 764 mmHg 81%
    22:00 -7°C° 0 mm 5 m/S 764 mmHg 82%
    23:00 -6°C° 0 mm 5 m/S 763 mmHg 81%

    übermorgen, 21 Oktober, Montag

    Zeit Temperatur Niederschläge Wind Luftdruck Luftfeuchtigkeit
    00:00 -6°C° 0 mm 5 m/S 763 mmHg 79%
    01:00 -6°C° 0 mm 5 m/S 763 mmHg 78%
    02:00 -6°C° 0 mm 6 m/S 762 mmHg 77%
    03:00 -5°C° 0 mm 6 m/S 762 mmHg 75%
    04:00 -5°C° 0 mm 6 m/S 762 mmHg 74%
    05:00 -5°C° 0.3 mm 6 m/S 761 mmHg 80%
    06:00 -5°C° 0.3 mm 6 m/S 761 mmHg 85%
    07:00 -4°C° 0.3 mm 6 m/S 761 mmHg 91%
    08:00 -4°C° 0.9 mm 6 m/S 761 mmHg 91%
    09:00 -3°C° 0.9 mm 6 m/S 760 mmHg 92%
    10:00 -3°C° 0.9 mm 6 m/S 760 mmHg 93%
    11:00 -2°C° 0.1 mm 6 m/S 760 mmHg 92%
    12:00 0°C° 0.1 mm 5 m/S 760 mmHg 92%
    13:00 0°C° 0.1 mm 5 m/S 760 mmHg 91%
    14:00 0°C° 0 mm 5 m/S 760 mmHg 91%
    15:00 0°C° 0 mm 4 m/S 760 mmHg 91%
    16:00 0°C° 0 mm 4 m/S 760 mmHg 91%
    17:00 0°C° 0 mm 4 m/S 760 mmHg 91%
    18:00 0°C° 0 mm 4 m/S 759 mmHg 91%
    19:00 0°C° 0 mm 4 m/S 759 mmHg 92%
    20:00 0°C° 0 mm 4 m/S 759 mmHg 92%
    21:00 0°C° 0 mm 4 m/S 758 mmHg 92%
    22:00 0°C° 0 mm 4 m/S 758 mmHg 93%
    23:00 0°C° 0 mm 4 m/S 757 mmHg 93%

    22 Oktober, Dienstag

    Zeit Temperatur Niederschläge Wind Luftdruck Luftfeuchtigkeit
    00:00 0°C° 0 mm 5 m/S 756 mmHg 93%
    01:00 0°C° 0 mm 5 m/S 756 mmHg 93%
    02:00 0°C° 0.3 mm 5 m/S 755 mmHg 94%
    03:00 +1°C° 0.3 mm 6 m/S 754 mmHg 94%
    04:00 +1°C° 0.3 mm 6 m/S 754 mmHg 94%
    05:00 +2°C° 0.1 mm 6 m/S 753 mmHg 92%
    06:00 +2°C° 0.1 mm 7 m/S 752 mmHg 90%
    07:00 +2°C° 0.1 mm 7 m/S 751 mmHg 89%
    08:00 +2°C° 0.7 mm 7 m/S 751 mmHg 89%
    09:00 +2°C° 0.7 mm 8 m/S 750 mmHg 89%
    10:00 +2°C° 0.7 mm 8 m/S 749 mmHg 89%
    11:00 +2°C° 0.3 mm 8 m/S 749 mmHg 87%
    12:00 +4°C° 0.3 mm 8 m/S 748 mmHg 86%
    13:00 +4°C° 0.3 mm 8 m/S 748 mmHg 84%
    14:00 +4°C° 0 mm 8 m/S 747 mmHg 84%
    15:00 +4°C° 0 mm 8 m/S 747 mmHg 84%
    16:00 +4°C° 0 mm 8 m/S 747 mmHg 84%
    17:00 +4°C° 0.1 mm 8 m/S 747 mmHg 85%
    18:00 +4°C° 0.1 mm 7 m/S 747 mmHg 87%
    19:00 +4°C° 0.1 mm 7 m/S 747 mmHg 88%
    20:00 +4°C° 0 mm 7 m/S 748 mmHg 88%
    21:00 +4°C° 0 mm 6 m/S 748 mmHg 88%
    22:00 +3°C° 0 mm 5 m/S 748 mmHg 87%
    23:00 +3°C° 0 mm 5 m/S 748 mmHg 88%

    23 Oktober, Mittwoch

    Zeit Temperatur Niederschläge Wind Luftdruck Luftfeuchtigkeit
    00:00 +2°C° 0 mm 5 m/S 748 mmHg 89%
    01:00 +3°C° 0 mm 4 m/S 749 mmHg 90%
    02:00 +1°C° 0 mm 4 m/S 749 mmHg 89%
    03:00 +1°C° 0 mm 5 m/S 749 mmHg 88%
    04:00 0°C° 0 mm 5 m/S 750 mmHg 87%
    05:00 0°C° 0 mm 4 m/S 750 mmHg 87%
    06:00 -1°C° 0 mm 4 m/S 751 mmHg 87%
    07:00 -1°C° 0 mm 4 m/S 751 mmHg 87%
    08:00 -1°C° 0 mm 4 m/S 752 mmHg 84%
    09:00 0°C° 0 mm 4 m/S 752 mmHg 82%
    10:00 +1°C° 0 mm 4 m/S 752 mmHg 79%
    11:00 +1°C° 0 mm 4 m/S 753 mmHg 77%
    12:00 +2°C° 0 mm 3 m/S 753 mmHg 76%
    13:00 +2°C° 0 mm 3 m/S 753 mmHg 74%
    14:00 +2°C° 0 mm 3 m/S 754 mmHg 75%
    15:00 +3°C° 0 mm 2 m/S 754 mmHg 77%
    16:00 +3°C° 0 mm 2 m/S 754 mmHg 78%
    17:00 +2°C° 0 mm 2 m/S 754 mmHg 80%
    18:00 +1°C° 0 mm 2 m/S 754 mmHg 82%
    19:00 +1°C° 0 mm 2 m/S 754 mmHg 85%
    20:00 -1°C° 0 mm 2 m/S 754 mmHg 86%
    21:00 -1°C° 0 mm 2 m/S 754 mmHg 87%
    22:00 -1°C° 0 mm 2 m/S 754 mmHg 89%
    23:00 -1°C° 0 mm 2 m/S 754 mmHg 89%

    24 Oktober, Donnerstag

    Zeit Temperatur Niederschläge Wind Luftdruck Luftfeuchtigkeit
    00:00 -1°C° 0 mm 2 m/S 753 mmHg 90%
    01:00 -1°C° 0 mm 3 m/S 753 mmHg 91%
    02:00 -1°C° 0 mm 3 m/S 753 mmHg 90%
    03:00 -1°C° 0 mm 3 m/S 753 mmHg 89%
    04:00 -1°C° 0 mm 3 m/S 752 mmHg 88%
    05:00 -1°C° 0 mm 4 m/S 752 mmHg 88%
    06:00 -1°C° 0 mm 4 m/S 752 mmHg 87%
    07:00 0°C° 0 mm 5 m/S 751 mmHg 86%
    08:00 +1°C° 0 mm 5 m/S 751 mmHg 85%
    09:00 +2°C° 0 mm 5 m/S 751 mmHg 83%
    10:00 +3°C° 0 mm 6 m/S 750 mmHg 81%
    11:00 +3°C° 0.1 mm 5 m/S 750 mmHg 82%
    12:00 +3°C° 0.1 mm 5 m/S 750 mmHg 83%
    13:00 +3°C° 0.1 mm 5 m/S 750 mmHg 84%
    14:00 +5°C° 0 mm 5 m/S 749 mmHg 85%
    15:00 +5°C° 0 mm 5 m/S 749 mmHg 86%
    16:00 +5°C° 0 mm 5 m/S 749 mmHg 87%
    17:00 +3°C° 0 mm 5 m/S 750 mmHg 88%
    18:00 +3°C° 0 mm 5 m/S 750 mmHg 89%
    19:00 +4°C° 0 mm 4 m/S 750 mmHg 91%
    20:00 +4°C° 0 mm 4 m/S 750 mmHg 91%
    21:00 +3°C° 0 mm 4 m/S 750 mmHg 92%
    22:00 +3°C° 0 mm 3 m/S 750 mmHg 92%
    23:00 +3°C° 0 mm 3 m/S 751 mmHg 92%
    Mehr zeigen